Location: Maignaut
(43.8886°N, 0.4051°E)
Time: 19:58:23
(UTC+00:00)

CSL-04 Rocket - Pass Details

Date: 17 January 2021
Orbit: 806 x 860 km, 98.9° (Epoch: 28 February)

Event Time Altitude Azimuth Distance (km) Brightness Sun altitude
Rises 19:21:37 0° 174° (S) 3,334 6.8 -27.1°
Reaches altitude 10° 19:23:58 10° 178° (S) 2,413 6.1 -27.5°
Maximum altitude 19:29:15 62° 258° (WSW) 937 4.1 -28.4°
Drops below altitude 10° 19:34:40 10° 339° (NNW) 2,466 6.3 -29.4°
Sets 19:37:05 0° 343° (NNW) 3,413 7.1 -29.8°
